Tracking 19827 objects as of 21-Aug-2019
HD Live streaming from Space Station
objects crossing your sky now

THORAD DELTA 1 DEB

Track THORAD DELTA 1 DEB now!
10-day predictions


NORAD ID: 8146
Int'l Code: 1974-089Q
Perigee: 1,306.6 km
Apogee: 1,597.3 km
Inclination: 101.7 °
Period: 114.8 minutes
Semi major axis: 7822 km
RCS: 0.2088 m2 (medium)
Launch date: November 15, 1974
Source: United States (US)
Launch site: AIR FORCE WESTERN TEST RANGE (AFWTR)

Note: This is SATELLITE DEBRIS
aabbcc
Your satellite tracking list
Your tracking list is empty




NASA's NSSDC Master Catalog

Two Line Element Set (TLE):
1  8146U 74089Q   19232.86315639 +.00000065 +00000-0 +64345-3 0  9991
2  8146 101.6675 189.7571 0185751 261.5608 153.0016 12.54723143048527
Source of the keplerian elements: AFSPC